Regional Weather Roundup
Issued by NWS Upton, NY

Current Version | Previous Version | Text Only | Print | Product List | Glossary On
Versions: 1 2 3 4 5 6 7 8 9 10 11 12 13 14 15 16 17 18 19 20 21 22 23 24 25 26 27 28 29 30 31 32 33 34 35 36 37 38 39 40 41 42 43 44 45 46 47 48 49 50
000 ASUS41 KOKX 031405 RWROKX REGIONAL WEATHER ROUNDUP NATIONAL WEATHER SERVICE NEW YORK NY 900 AM EST TUE MAR 03 2015 NOTE: "FAIR" INDICATES FEW OR NO CLOUDS BELOW 12,000 FEET WITH NO SIGNIFICANT WEATHER AND/OR OBSTRUCTIONS TO VISIBILITY. NYZ071-072-176-178-NJZ106-104-031500- NEW YORK CITY METRO AREA CITY SKY/WX TMP DP RH WIND PRES REMARKS CENTRAL PARK PTSUNNY 27 10 49 CALM 30.47R LAGUARDIA APRT CLOUDY 27 9 46 CALM 30.46R KENNEDY INTL CLOUDY 28 9 44 CALM 30.48R NEWARK/LIBERTY PTSUNNY 25 11 55 NE3 30.47R BRNX BOT. GARD N/A N/A N/A N/A S1 30.47R TETERBORO PTSUNNY 25 8 48 CALM 30.46R $$ NYZ177-179-078>081-031500- LONG ISLAND NEW YORK CITY SKY/WX TMP DP RH WIND PRES REMARKS FARMINGDALE PTSUNNY 27 11 51 CALM 30.47R ISLIP PTSUNNY 25 11 55 N7 30.44R WCI 17 SHIRLEY MOSUNNY 26 10 50 NW7 30.47R WCI 18 WESTHAMPTON SUNNY 26 11 52 NW8 30.46R WCI 18 MONTAUK POINT NOT AVBL $$ NYZ052-065-067-031500- HUDSON VALLEY CITY SKY/WX TMP DP RH WIND PRES REMARKS WHITE PLAINS PTSUNNY 22 9 57 CALM 30.42R NEWBURGH SUNNY 19 10 68 W7 30.42R WCI 10 MONTGOMERY PTSUNNY 17 7 64 S7 30.42R WCI 8 POUGHKEEPSIE PTSUNNY 17 6 62 CALM 30.44R ALBANY CLOUDY 17 6 62 CALM 30.41S $$ NJZ001-105-106-008-010-013-015-019>022-104-031500- NEW JERSEY CITY SKY/WX TMP DP RH WIND PRES REMARKS NEWARK/LIBERTY PTSUNNY 25 11 55 NE3 30.47R TETERBORO PTSUNNY 25 8 48 CALM 30.46R CALDWELL PTSUNNY 22 9 57 CALM 30.46R MORRISTOWN MOSUNNY 23 10 58 CALM 30.46R SOMERVILLE PTSUNNY 24 9 52 CALM 30.43F SUSSEX PTSUNNY 16 7 67 CALM 30.41S ANDOVER N/A 20 8 60 CALM 30.40F TRENTON PTSUNNY 25 9 50 VRB3 30.44S MILLVILLE PTSUNNY 27 11 51 NE5 30.44F WCI 22 ATLANTIC CITY PTSUNNY 27 12 53 NE7 30.43F WCI 19 WRIGHTSTOWN PTSUNNY 26 10 52 NE6 30.41F WCI 19 TOMS RIVER PTSUNNY 27 10 50 NE6 30.45F WCI 20 BELMAR PTSUNNY 27 9 46 CALM 30.44F $$ PAZ047>061-062-071-031500- EASTERN PENNSYLVANIA CITY SKY/WX TMP DP RH WIND PRES REMARKS PHILADELPHIA CLOUDY 28 11 48 E6 30.47F WCI 22 ALLENTOWN CLOUDY 22 10 60 CALM 30.43S SCRANTON CLOUDY 18 8 65 CALM 30.35F $$ CTZ002-004>006-009-010-012-RIZ004-006-007-MAZ004-011-015-031500- SOUTHERN NEW ENGLAND IN CT CITY SKY/WX TMP DP RH WIND PRES REMARKS BRADLEY INTL PTSUNNY 21 6 52 SE3 30.42R HARTFORD SUNNY 21 7 54 CALM 30.45R DANBURY MOSUNNY 17 7 64 CALM 30.43R WTRBRY/OXFORD MOSUNNY 19 3 49 CALM 30.40R BRIDGEPORT MOSUNNY 24 9 52 NW8 30.46R WCI 15 MERIDEN SUNNY 21 7 54 CALM 30.45R NEW HAVEN CLOUDY 23 8 52 VRB3 30.45R CHESTER FAIR 23 9 54 N3 30.41R GROTON SUNNY 23 8 52 N7 30.44S WCI 15 WILLIMANTIC SUNNY 18 6 59 CALM 30.44R IN RI CITY SKY/WX TMP DP RH WIND PRES REMARKS PROVIDENCE PTSUNNY 25 8 48 VRB3 30.43S BLOCK ISLAND SUNNY 25 10 54 N7 30.42S WCI 17 WESTERLY SUNNY 25 8 48 NW5 30.44R WCI 19 IN MA CITY SKY/WX TMP DP RH WIND PRES REMARKS BOSTON MOSUNNY 23 1 38 NW13 30.41R WCI 11 WORCESTER SUNNY 20 -1 40 N7 30.34S WCI 11 WESTFIELD SUNNY 19 6 57 CALM 30.42R PROVINCETOWN SUNNY 25 7 46 NW14 30.41R WCI 13 NANTUCKET SUNNY 26 8 46 NW13G18 30.41R WCI 15 $$ ANZ330-335-338-340-345-350-353-355-031500- COASTAL MARINE OBSERVATIONS STATION/POSITION TIME SKY/WX TEMP WIND PRES VSBY WAVE AIR SEA DIR/SP/G HT/PER (UTC) (F) (DEG/KT/KT) (MB) (MI) (FT/S) NY HARB ENTRANCE 1400 29 38 50/ 4/ 4 1031.6 1 4S FIRE IS NOT AVBL 20S FIRE ISLAND 1300 36 1031.4 2/ 9 23SW MTP 1400 N/A 2/ 3 HUDSON CANYON NOT AVBL EXECUTION ROCKS NOT AVBL WESTERN LI SOUND NOT AVBL CENTRAL LI SOUND NOT AVBL EASTERN LI SOUND NOT AVBL ROBBINS REEF 1400 24 300/ 3/ 4 N/A $$ >>>>>>>>>>>>>>>>>>>>>>>>>>>> KEY <<<<<<<<<<<<<<<<<<<<<<<<<<< > < > SKY/WX - SKY CONDITION/PRESENT WEATHER < > TMP - TEMPERATURE IN FAHRENHEIT < > DP - DEWPOINT IN FAHRENHEIT < > RH - RELATIVE HUMIDITY IN PERCENT < > WIND - DIRECTION AND SPEED IN MPH < > PRES - MEAN SEA LEVEL PRESSURE IN INCHES OF HG < > WCI - WIND CHILL INDEX < > VSB - VISIBILITY IN MILES < > HX - HEAT INDEX < > TC - TEMPERATURE IN CELSIUS < > VRB - VARIABLE WIND DIRECTION < > < >>>>>>>>>>>>>>>>>>>>>>>>>>>> KEY <<<<<<<<<<<<<<<<<<<<<<<<<<<

USA.gov is the U.S. government's official web portal to all federal, state and local government web resources and services.